Location: Cleveland
(41.4990°N, 81.6960°W)
Time: 13:02:00
(UTC-04:00)

N. Korean satellite - Pass Details

Date: 03 October 2021
Orbit: 450 x 495 km, 97.3° (Epoch: 15 October)

Event Time Altitude Azimuth Distance (km) Brightness Sun altitude
Rises 06:45:01 0° 11° (N) 2,556 10.4 -8.5°
Reaches altitude 10° 06:47:05 10° 11° (NNE) 1,678 9.5 -8.1°
Maximum altitude 06:50:42 89° 292° (WNW) 496 6.6 -7.4°
Drops below altitude 10° 06:54:20 10° 194° (SSW) 1,682 9.2 -6.8°
Sets 06:56:24 0° 194° (SSW) 2,563 10.1 -6.4°
